Flag for U.S.A. Weather past 2 weeks in Columbia, South Carolina, U.S.A.

Now
52 °F

Sunny.


Feels Like: 50 °F
Forecast: 37 / 52 °F
Wind: 6 mph from North

Location: Columbia Owens Downtown Airport

Current Time: Jan 30, 2015 at 2:18:27 PM

Latest Report: Jan 30, 2015 at 1:53 PM


Visibility: 10 mi

Pressure: 30.18 "Hg

Humidity: 30%

Dew point: 21 °F

Location of ColumbiaLocation

Historic Weather in Columbia — Graph

°F

Columbia temperature yesterday

Maximum temperature yesterday: 56 °F (at 2:53 PM)
Minimum temperature yesterday: 28 °F (at 5:53 AM)
Average temperature yesterday: 42 °F

Past Weeks' High & Low Weather Summary

 TemperatureHumidityPressure
High69 °F (Jan 19, 2:53 PM)93% (Jan 23, 5:53 PM)30.39 "Hg (Jan 23, 5:53 PM)
Low28 °F (Jan 28, 6:53 AM)15% (Jan 19, 2:53 PM)29.62 "Hg (Jan 24, 4:53 AM)
Average47 °F61%30.05 "Hg
* Reported Jan 15 12:53 PM — Jan 30 12:53 PM, Columbia, Weather by CustomWeather, © 2014

Note: Actual official high and low records may vary slightly from our data, if they occured in-between our weather recording intervals... More about our weather records

Advertising

Columbia weather history for previous 24 hours

 ConditionsComfort  
Time TempWeatherWind HumidityBarometerVisibility
12:53 PM
Jan 30
53 °FSunny.12 mph31%30.19 "Hg10 mi
11:53 AM52 °FSunny.14 mph35%30.21 "Hg10 mi
10:53 AM50 °FSunny.10 mph39%30.20 "Hg10 mi
9:53 AM48 °FSunny.8 mph44%30.18 "Hg10 mi
8:53 AM47 °FSunny.8 mph50%30.16 "Hg10 mi
7:53 AM46 °FSunny.7 mph56%30.13 "Hg10 mi
6:53 AM48 °FClear.6 mph54%30.09 "Hg10 mi
5:53 AM52 °FPassing clouds.5 mph55%30.04 "Hg10 mi
4:53 AM53 °FPassing clouds.8 mph52%30.01 "Hg10 mi
3:53 AM52 °FMostly cloudy.5 mph50%30.01 "Hg10 mi
2:53 AM52 °FMostly cloudy.5 mph49%30.02 "Hg10 mi
1:53 AM52 °FPassing clouds.5 mph49%30.04 "Hg10 mi
12:53 AM52 °FClear.7 mph47%30.07 "Hg10 mi
11:53 PM
Jan 29
47 °FPassing clouds.No wind66%30.10 "Hg10 mi
10:53 PM47 °FOvercast.No wind66%30.13 "Hg10 mi
9:53 PM46 °FPassing clouds.No wind66%30.14 "Hg9 mi
8:53 PM46 °FPassing clouds.No wind61%30.15 "Hg10 mi
7:53 PM46 °FPassing clouds.No wind56%30.14 "Hg10 mi
6:53 PM51 °FPassing clouds.No wind36%30.15 "Hg10 mi
5:53 PM53 °FPassing clouds.6 mph32%30.15 "Hg10 mi
4:53 PM55 °FPassing clouds.10 mph28%30.16 "Hg10 mi
3:53 PM56 °FSunny.10 mph26%30.19 "Hg10 mi
2:53 PM56 °FSunny.10 mph28%30.22 "Hg10 mi
Weather by CustomWeather, © 2014

See weather overviewHow to use our weather pages